SR7U-1 Weather Reports


time (UTC)temp
F
wind
direction
speed
knots
gust
knots
rain 1hr
in
rain 24hr
in
rain mn
in
humidity
%
barometer
mb
20260504140555 79 0.0 0.0 0.00 0.00 0.00 23 1012.7
20260504100335 74 0.0 0.0 0.00 0.00 0.00 27 1014.9
20260504081353 69 0.0 0.0 0.00 0.00 0.00 33 1015.3
20260504050205 52 0.0 0.0 0.00 0.00 0.00 64 1015.4
20260504044910 51 0.0 0.0 0.00 0.00 0.00 66 1015.4
20260504043410 50 0.0 0.0 0.00 0.00 0.00 67 1015.3
20260504041934 49 0.0 0.0 0.00 0.00 0.00 69 1015.2
20260504040635 47 0.0 0.0 0.00 0.00 0.00 70 1015.1
20260504035422 46 0.0 0.0 0.00 0.00 0.00 71 1015.1
20260504034155 45 0.0 0.0 0.00 0.00 0.00 73 1015.1
20260504032658 44 0.0 0.0 0.00 0.00 0.00 75 1015.0
20260504031500 42 0.0 0.0 0.00 0.00 0.00 79 1014.6
20260504030025 44 0.0 0.0 0.00 0.00 0.00 76 1014.9
20260504024600 44 0.0 0.0 0.00 0.00 0.00 77 1014.9
20260504023310 45 0.0 0.0 0.00 0.00 0.00 75 1014.9
20260504022045 46 0.0 0.0 0.00 0.00 0.00 73 1015.0
20260504020845 47 0.0 0.0 0.00 0.00 0.00 72 1014.9
20260504015515 47 0.0 0.0 0.00 0.00 0.00 71 1014.9
20260504014057 46 0.0 0.0 0.00 0.00 0.00 72 1015.0
20260504012825 47 0.0 0.0 0.00 0.00 0.00 72 1015.1
20260504011540 47 0.0 0.0 0.00 0.00 0.00 71 1015.2
20260504010135 48 0.0 0.0 0.00 0.00 0.00 71 1015.3
20260504004725 47 0.0 0.0 0.00 0.00 0.00 71 1015.2
20260504003355 47 0.0 0.0 0.00 0.00 0.00 72 1015.3
20260504002130 48 0.0 0.0 0.00 0.00 0.00 71 1015.2
20260504000915 50 0.0 0.0 0.00 0.00 0.00 67 1015.3
20260503235435 50 0.0 0.0 0.00 0.00 0.00 65 1015.4
20260503234042 51 0.0 0.0 0.00 0.00 0.00 63 1015.3
20260503232730 51 0.0 0.0 0.00 0.00 0.00 62 1015.4
20260503231353 52 0.0 0.0 0.00 0.00 0.00 62 1015.5
20260503230050 52 0.0 0.0 0.00 0.00 0.00 61 1015.5
20260503224700 54 0.0 0.0 0.00 0.00 0.00 57 1015.5
20260503223255 54 0.0 0.0 0.00 0.00 0.00 55 1015.5
20260503221830 53 0.0 0.0 0.00 0.00 0.00 54 1015.4
20260503220455 52 0.0 0.0 0.00 0.00 0.00 60 1015.5
20260503215234 55 0.0 0.0 0.00 0.00 0.00 51 1015.6
20260503213802 57 0.0 0.0 0.00 0.00 0.00 50 1015.6
20260503212305 62 0.0 0.0 0.00 0.00 0.00 41 1015.4
20260503210810 63 0.0 0.0 0.00 0.00 0.00 39 1015.3
20260503205420 63 0.0 0.0 0.00 0.00 0.00 38 1015.3
20260503204020 62 0.0 0.0 0.00 0.00 0.00 37 1015.2
20260503202610 64 0.0 0.0 0.00 0.00 0.00 37 1015.1
20260503201302 65 0.0 0.0 0.00 0.00 0.00 35 1015.2
20260503195825 65 0.0 0.0 0.00 0.00 0.00 35 1015.2
20260503194510 67 0.0 0.0 0.00 0.00 0.00 33 1015.1
20260503193240 67 0.0 0.0 0.00 0.00 0.00 33 1015.2
20260503191809 68 0.0 0.0 0.00 0.00 0.00 32 1015.2
20260503190435 68 0.0 0.0 0.00 0.00 0.00 31 1015.1
20260503185218 68 0.0 0.0 0.00 0.00 0.00 31 1015.2
20260503184017 68 0.0 0.0 0.00 0.00 0.00 31 1015.1
20260503182625 69 0.0 0.0 0.00 0.00 0.00 32 1015.0
20260503181215 70 0.0 0.0 0.00 0.00 0.00 31 1015.0
20260503175825 69 0.0 0.0 0.00 0.00 0.00 31 1014.9
20260503174615 70 0.0 0.0 0.00 0.00 0.00 30 1014.8
20260503173235 71 0.0 0.0 0.00 0.00 0.00 29 1015.0
20260503171907 72 0.0 0.0 0.00 0.00 0.00 28 1014.9
20260503170430 73 0.0 0.0 0.00 0.00 0.00 28 1014.9
20260503150308 77 0.0 0.0 0.00 0.00 0.00 24 1015.6